This is the latest recevied weather packets stored in our database for station/object VE3VGJ. If no packets are shown the sender has not sent any weather packets the latest 10 day(s).
| Time | Temp. | Humidity | Pressure | Rain* | Wind** | Luminosity | Snow |
|---|---|---|---|---|---|---|---|
| 1778164569 | 10° C | 43% | 1011.8 hPa | 0 mm | - | 714 W/m² | - |
| 1778164266 | 9.44° C | 45% | 1012 hPa | 0 mm | - | 701 W/m² | - |
| 1778163962 | 9.44° C | 44% | 1011.7 hPa | 0 mm | - | 687 W/m² | - |
| 1778163659 | 10° C | 44% | 1011.9 hPa | 0 mm | - | 673 W/m² | - |
| 1778163355 | 9.44° C | 46% | 1011.9 hPa | 0 mm | - | 655 W/m² | - |
| 1778163051 | 10° C | 43% | 1012.1 hPa | 0 mm | - | 644 W/m² | - |
| 1778162748 | 10° C | 43% | 1011.9 hPa | 0 mm | - | 631 W/m² | - |
| 1778162446 | 9.44° C | 44% | 1012.2 hPa | 0 mm | - | 614 W/m² | - |
| 1778162142 | 9.44° C | 44% | 1012.2 hPa | 0 mm | - | 597 W/m² | - |
| 1778161840 | 9.44° C | 45% | 1012.2 hPa | 0 mm | - | 581 W/m² | - |
| 1778161536 | 8.89° C | 46% | 1012.4 hPa | 0 mm | - | 566 W/m² | - |
| 1778161232 | 8.89° C | 45% | 1012.5 hPa | 0 mm | - | 548 W/m² | - |
| 1778160928 | 8.33° C | 46% | 1012.4 hPa | 0 mm | - | 537 W/m² | - |
| 1778160627 | 8.33° C | 45% | 1012.6 hPa | 0 mm | - | 514 W/m² | - |
| 1778160323 | 8.33° C | 45% | 1012.4 hPa | 0 mm | - | 497 W/m² | - |
| 1778160019 | 8.33° C | 47% | 1012.7 hPa | 0 mm | - | 484 W/m² | - |
| 1778159716 | 8.33° C | 45% | 1012.6 hPa | 0 mm | - | 465 W/m² | - |
| 1778159413 | 8.33° C | 45% | 1012.7 hPa | 0 mm | - | 448 W/m² | - |
| 1778159110 | 7.78° C | 46% | 1012.6 hPa | 0 mm | - | 357 W/m² | - |
| 1778158809 | 7.78° C | 47% | 1012.7 hPa | 0 mm | - | 412 W/m² | - |
| 1778158507 | 7.78° C | 48% | 1012.6 hPa | 0 mm | - | 333 W/m² | - |
| 1778158203 | 7.78° C | 47% | 1012.7 hPa | 0 mm | - | 79 W/m² | - |
| 1778157900 | 7.22° C | 47% | 1012.3 hPa | 0 mm | - | 151 W/m² | - |
| 1778157598 | 7.22° C | 49% | 1012.3 hPa | 0 mm | - | 80 W/m² | - |
| 1778157295 | 7.78° C | 47% | 1012.6 hPa | 0 mm | - | 94 W/m² | - |
* Rain latest hour (hover to see other rain measurements)
** Current wind speed in m/s (hover to see current wind gust speed)